Flag for U.S.A. Weather past 2 weeks in San Francisco, California, U.S.A.

Now
65 °F

Passing clouds.


Feels Like: 65 °F
Forecast: 64 / 72 °F
Wind: 12 mph from Northwest

Location: San Francisco International Airport

Current Time: Sep 19, 2014 at 2:57:12 AM

Latest Report: Sep 19, 2014 at 1:56 AM


Visibility: 10 mi

Pressure: 29.90 "Hg

Humidity: 91%

Dew point: 62 °F

Location of San FranciscoLocation

Historic Weather in San Francisco — Graph

°F

San Francisco temperature yesterday

Maximum temperature yesterday: 79 °F (at 2:56 PM)
Minimum temperature yesterday: 65 °F (at 11:56 PM)
Average temperature yesterday: 72 °F

Past Weeks' High & Low Weather Summary

 TemperatureHumidityPressure
High82 °F (Sep 10, 2:56 PM)96% (Sep 10, 7:56 AM)30.00 "Hg (Sep 10, 7:56 AM)
Low56 °F (Sep 10, 4:56 AM)41% (Sep 17, 2:56 PM)29.72 "Hg (Sep 4, 4:56 AM)
Average66 °F77%29.86 "Hg
* Reported Sep 4 1:56 AM — Sep 19 1:56 AM, San Francisco, Weather by CustomWeather, © 2014

Note: Actual official high and low records may vary slightly from our data, if they occured in-between our weather recording intervals... More about our weather records

Advertising

San Francisco weather history for previous 24 hours

 ConditionsComfort  
Time TempWeatherWind HumidityBarometerVisibility
1:56 AM
Sep 19
65 °FPassing clouds.12 mph91%29.90 "Hg10 mi
12:56 AM65 °FPassing clouds.No wind91%29.88 "Hg10 mi
11:56 PM
Sep 18
65 °FPassing clouds.7 mph94%29.89 "Hg10 mi
10:56 PM66 °FPassing clouds.7 mph90%29.89 "Hg10 mi
9:56 PM68 °FPassing clouds.8 mph87%29.88 "Hg10 mi
8:56 PM69 °FClear.7 mph81%29.87 "Hg10 mi
7:56 PM70 °FPassing clouds.7 mph76%29.85 "Hg10 mi
6:56 PM71 °FScattered clouds.8 mph73%29.84 "Hg10 mi
5:56 PM74 °FScattered clouds.9 mph69%29.83 "Hg10 mi
4:56 PM77 °FScattered clouds.12 mph60%29.83 "Hg10 mi
3:56 PM79 °FScattered clouds.16 mph56%29.83 "Hg10 mi
2:56 PM79 °FBroken clouds.14 mph58%29.84 "Hg10 mi
1:56 PM76 °FBroken clouds.3 mph64%29.86 "Hg10 mi
12:56 PM73 °FPartly sunny.6 mph74%29.87 "Hg10 mi
11:56 AM72 °FPartly sunny.10 mph78%29.88 "Hg10 mi
10:56 AM73 °FMore clouds than sun.10 mph74%29.87 "Hg10 mi
9:56 AM73 °FBroken clouds.8 mph74%29.85 "Hg10 mi
8:56 AM72 °FBroken clouds.9 mph78%29.85 "Hg10 mi
8:03 AM70 °FBroken clouds.3 mph88%29.84 "Hg10 mi
7:56 AM69 °FMostly cloudy.3 mph90%29.83 "Hg10 mi
6:56 AM69 °FLight rain. Low clouds.6 mph90%29.82 "Hg8 mi
5:56 AM70 °FMostly cloudy.3 mph87%29.79 "Hg10 mi
4:56 AM70 °FMostly cloudy.5 mph84%29.78 "Hg10 mi
3:56 AM70 °FPartly cloudy.5 mph84%29.77 "Hg10 mi
2:56 AM71 °FPassing clouds.5 mph78%29.77 "Hg10 mi
Weather by CustomWeather, © 2014

See weather overviewHow to use our weather pages